Location: Rounton
(54.4000°N, 1.3500°W)
Time: 15:38:39
(UTC+01:00)

S-56A Canister/Altair - Pass Details

Date: 12 September 2024
Orbit: 636 x 2487 km, 38.9° (Epoch: 02 October)

Event Time Altitude Azimuth Distance (km) Brightness Sun altitude
Rises 20:07:28 0° 205° (SSW) 3,503 11.0 -6.4°
Reaches altitude 10° 20:10:43 10° 185° (S) 2,820 10.3 -6.9°
Maximum altitude 20:14:55 17° 147° (SSE) 2,677 9.9 -7.5°
Drops below altitude 10° 20:20:04 10° 111° (ESE) 3,616 10.3 -8.2°
Enters shadow 20:20:22 - 110° (ESE) 3,693 10.3 -8.2°
Sets 20:25:06 0° 95° (E) 5,009 - -8.9°
